EW5738 Weather Reports


Display with metric or nautical units.
time (UTC)temp
F
wind
direction
speed
MPH
gust
MPH
rain 1hr
in
rain 24hr
in
rain mn
in
humidity
%
barometer
mb
20260901001511 65 195 5.0 9.0 0.00 0.00 0.00 81 1030.5
20260901000123 65 229 1.0 7.0 0.00 0.00 0.00 82 1030.6
20260831234508 65 130 4.0 9.0 0.00 0.00 0.00 80 1031.0
20260831233104 65 175 4.0 7.0 0.00 0.00 0.00 80 1030.9
20260831231502 63 137 4.0 9.0 0.00 0.00 0.00 80 1030.9
20260831230104 64 137 3.0 9.0 0.00 0.00 0.00 79 1030.9
20260831224556 64 138 3.0 8.0 0.00 0.00 0.00 79 1030.7
20260831223057 63 161 1.0 3.0 0.00 0.00 0.00 82 1030.5
20260831221546 62 293 2.0 4.0 0.00 0.00 0.00 82 1030.7
20260831220042 61 283 1.0 5.0 0.00 0.00 0.00 83 1030.6
20260831214538 60 160 1.0 3.0 0.00 0.00 0.00 87 1030.5
20260831213033 58 269 1.0 4.0 0.00 0.00 0.00 89 1030.4
20260831211630 57 170 2.0 6.0 0.00 0.00 0.00 89 1030.1
20260831210023 56 197 2.0 4.0 0.00 0.00 0.00 88 1030.0
20260831204523 56 269 0.0 2.0 0.00 0.00 0.00 88 1029.7
20260831203015 56 89 0.0 4.0 0.00 0.00 0.00 87 1029.4
20260831201515 56 152 1.0 5.0 0.00 0.00 0.00 87 1029.2
20260831200023 56 206 1.0 3.0 0.00 0.00 0.00 87 1029.0
20260831194505 57 173 0.0 3.0 0.00 0.00 0.00 87 1028.9
20260831191500 57 269 0.0 1.0 0.00 0.00 0.00 87 1028.5
20260831190118 57 269 0.0 2.0 0.00 0.00 0.00 87 1028.5
20260831184605 57 314 1.0 2.0 0.00 0.00 0.00 87 1028.5
20260831183100 58 300 0.0 2.0 0.00 0.00 0.00 87 1028.4
20260831181559 58 286 1.0 2.0 0.00 0.00 0.00 87 1028.3
20260831180051 58 308 1.0 2.0 0.00 0.00 0.00 87 1028.3
20260831174550 58 269 1.0 4.0 0.00 0.00 0.00 87 1028.2
20260831173148 58 190 0.0 3.0 0.00 0.00 0.00 86 1028.4
20260831171545 58 279 1.0 3.0 0.00 0.00 0.00 86 1028.5
20260831170046 58 46 0.0 3.0 0.00 0.00 0.00 86 1028.6
20260831164549 59 295 1.0 3.0 0.00 0.00 0.00 86 1028.7
20260831163040 59 221 1.0 4.0 0.00 0.00 0.00 86 1028.8
20260831161538 59 178 3.0 6.0 0.00 0.00 0.00 86 1028.9
20260831160035 59 166 3.0 7.0 0.00 0.00 0.00 86 1029.1
20260831154534 59 210 3.0 6.0 0.00 0.00 0.00 86 1029.2
20260831153030 59 184 1.0 4.0 0.00 0.00 0.00 86 1029.4
20260831151527 59 185 1.0 5.0 0.00 0.00 0.00 86 1029.5
20260831150025 60 178 1.0 3.0 0.00 0.00 0.00 86 1029.6
20260831144532 60 208 2.0 5.0 0.00 0.00 0.00 86 1029.6
20260831143033 60 201 0.0 3.0 0.00 0.00 0.00 86 1029.8
20260831141541 60 219 0.0 3.0 0.00 0.00 0.00 86 1030.0
20260831140035 61 178 1.0 3.0 0.00 0.00 0.00 86 1030.2
20260831134515 61 189 2.0 4.0 0.00 0.00 0.00 85 1030.1
20260831133016 61 206 2.0 5.0 0.00 0.00 0.00 85 1030.3
20260831131511 62 185 3.0 5.0 0.00 0.00 0.00 85 1030.4
20260831130009 62 186 3.0 4.0 0.00 0.00 0.00 84 1030.4
20260831124509 63 197 2.0 4.0 0.00 0.00 0.00 83 1030.5
20260831123008 63 178 3.0 6.0 0.00 0.00 0.00 82 1030.7
20260831121504 63 197 2.0 5.0 0.00 0.00 0.00 83 1030.7
20260831120002 63 152 1.0 3.0 0.00 0.00 0.00 83 1030.7
20260831114600 63 178 0.0 3.0 0.00 0.00 0.00 84 1030.8
20260831113109 63 295 1.0 4.0 0.00 0.00 0.00 85 1030.8
20260831111602 63 187 1.0 2.0 0.00 0.00 0.00 86 1030.8
20260831110059 63 46 0.0 2.0 0.00 0.00 0.00 85 1030.7
20260831104557 62 269 0.0 2.0 0.00 0.00 0.00 85 1030.6
20260831103057 63 295 0.0 2.0 0.00 0.00 0.00 84 1030.5
20260831101613 63 314 1.0 2.0 0.00 0.00 0.00 84 1030.4
20260831100154 63 283 1.0 2.0 0.00 0.00 0.00 83 1030.3
20260831094552 63 306 1.0 3.0 0.00 0.00 0.00 83 1030.2
20260831093053 64 324 0.0 2.0 0.00 0.00 0.00 82 1030.1
20260831091551 64 178 0.0 2.0 0.00 0.00 0.00 82 1030.0
20260831090105 64 46 0.0 2.0 0.00 0.00 0.00 81 1030.0
20260831084549 64 340 0.0 2.0 0.00 0.00 0.00 81 1029.8
20260831081548 65 303 0.0 4.0 0.00 0.00 0.00 76 1029.6
20260831080145 65 295 1.0 3.0 0.00 0.00 0.00 75 1029.5
20260831074544 66 112 0.0 2.0 0.00 0.00 0.00 74 1029.4
20260831073043 66 327 1.0 7.0 0.00 0.00 0.00 74 1029.3
20260831071541 66 124 1.0 5.0 0.00 0.00 0.00 74 1029.2
20260831070041 67 335 2.0 10.0 0.00 0.00 0.00 74 1029.1
20260831063138 68 127 2.0 8.0 0.00 0.00 0.00 74 1028.8
20260831061537 68 295 3.0 11.0 0.00 0.00 0.00 72 1028.6
20260831060035 69 23 3.0 13.0 0.00 0.00 0.00 70 1028.4
20260831054534 69 135 4.0 13.0 0.00 0.00 0.00 68 1028.1
20260831053031 70 133 6.0 12.0 0.00 0.00 0.00 67 1028.1
20260831051535 70 129 2.0 15.0 0.00 0.00 0.00 65 1028.2
20260831050028 71 132 4.0 13.0 0.00 0.00 0.00 64 1028.2
20260831043023 71 140 6.0 12.0 0.00 0.00 0.00 67 1028.4
20260831041527 72 102 4.0 13.0 0.00 0.00 0.00 66 1028.3
20260831040021 71 138 5.0 17.0 0.00 0.00 0.00 65 1028.3
20260831034517 71 156 5.0 16.0 0.00 0.00 0.00 65 1028.5
20260831033021 72 152 2.0 8.0 0.00 0.00 0.00 66 1028.5
20260831031512 72 110 2.0 11.0 0.00 0.00 0.00 62 1028.6
20260831030116 73 138 2.0 13.0 0.00 0.00 0.00 59 1028.6
20260831024507 74 137 6.0 13.0 0.00 0.00 0.00 56 1028.7
20260831023004 72 152 4.0 10.0 0.00 0.00 0.00 59 1029.0
20260831021502 71 131 3.0 10.0 0.00 0.00 0.00 59 1029.1
20260831020106 73 130 1.0 10.0 0.00 0.00 0.00 56 1029.1
20260831014558 71 20 1.0 11.0 0.00 0.00 0.00 59 1029.3
20260831013111 71 89 2.0 11.0 0.00 0.00 0.00 57 1029.5
20260831011555 72 202 2.0 9.0 0.00 0.00 0.00 57 1029.7
20260831010058 72 40 1.0 6.0 0.00 0.00 0.00 60 1029.8
20260831004550 72 291 3.0 9.0 0.00 0.00 0.00 61 1030.0
20260831003044 70 142 1.0 6.0 0.00 0.00 0.00 62 1030.2
20260831001541 70 143 5.0 12.0 0.00 0.00 0.00 63 1030.4